Location: Colorado Springs
(38.8340°N, 104.8210°W)
Time: 13:19:51
(UTC-06:00)

OTV 5 (USA 277) - Pass Details

Date: 10 October 2017
Orbit: 404 x 417 km, 43.0° (Epoch: 07 September)

Event Time Altitude Azimuth Distance (km) Brightness Sun altitude
Rises 19:14:02 0° 232° (SW) 2,344 ? -9.8°
Reaches altitude 10° 19:16:10 10° 227° (SW) 1,484 ? -10.3°
Maximum altitude 19:19:25 47° 152° (SSE) 558 ? -10.9°
Enters shadow 19:21:37 18° 84° (E) 1,091 ? -11.3°
